[[{"header":{"parameterUnit":"m.s-1","parameterCategory":1,"la1":30.2991,"la2":30.254,"lo1":-89.0895,"lo2":-89.0444,"dy":0.0017,"dx":0.0017,"nx":28,"ny":28,"refTime":"2023-10-12T21:00:00:Z","depth":0,"parameterNumber":2,"parameterNumberName":"U-component_of_WINDS"},"data":[0,0,0,0,0,0,0,0,0,0,0,0,0,0,0,0,0,0,0,0,0,0,0,0,0,0,0,0,0,0,0,0,0,0,0,0,0,0,0,0,0,0,0,0,0,0,0,0,0,0,0,0,0,0,0,0,0,0,3.4614,3.4614,0,3.4681,3.4681,3.4682,3.4681,3.468,3.4679,3.4678,3.4749,3.4752,3.4755,0,0,0,0,0,0,0,0,0,0,0,0,0,3.449,3.4492,3.4613,3.4614,3.4615,3.4681,3.4681,3.4682,3.4681,3.468,3.4679,3.4678,3.4748,3.4752,3.4755,0,0,0,0,0,0,0,0,0,0,0,0,0,3.4549,3.4493,3.4613,3.4622,3.4624,3.468,3.4681,3.4683,3.4681,3.468,3.4678,3.4677,3.4747,3.4751,3.4755,3.4808,0,0,3.4768,3.477,0,0,0,0,0,0,0,0,3.4546,3.4553,3.462,3.4622,3.4623,3.4671,3.4664,3.4725,3.4682,3.4659,3.4678,3.4677,3.4725,3.473,3.4746,3.4812,3.4815,3.4768,3.4771,3.4773,3.4774,0,0,0,0,0,0,0,3.4541,3.4551,3.464,3.4621,3.4623,3.4625,3.4632,3.4675,3.4699,3.4661,3.4661,3.4669,3.4725,3.4742,3.4748,3.4816,3.4768,3.4772,3.4774,3.4776,3.4934,3.4936,0,0,0,0,0,0,3.4535,3.4547,3.4638,3.4642,3.458,3.4628,3.4636,3.4657,3.4698,3.4703,3.467,3.4669,3.4736,3.4743,3.475,3.4819,3.4773,3.4776,3.4779,3.4933,3.4935,3.4937,0,0,0,0,0,0,3.4532,3.4543,3.4635,3.4595,3.4607,3.4632,3.4656,3.4659,3.4676,3.4705,3.471,3.4683,3.4735,3.4744,3.4795,3.4821,3.4778,3.4782,3.4931,3.4933,3.4936,3.4954,0,0,0,0,0,0,3.4529,3.4542,3.4561,3.4595,3.4609,3.4677,3.4657,3.4661,3.4683,3.4682,3.4718,3.4723,3.4735,3.4789,3.4799,3.4826,3.4785,3.4928,3.4932,3.4935,3.4951,3.4957,3.4962,0,0,0,0,0,3.4524,3.4562,3.4561,3.4572,3.4632,3.4678,3.4686,3.4698,3.4685,3.4705,3.4725,3.4722,3.4817,3.4794,3.4806,3.4834,3.4927,3.4931,3.4935,3.4949,3.4956,3.4962,0,0,0,0,0,0,3.4529,3.4567,3.4566,3.4616,3.4644,3.4678,3.4704,3.4704,3.4737,3.4735,3.4749,3.4757,3.4809,3.4826,3.4801,3.4891,3.487,3.4877,3.4877,3.4884,3.4889,3.4885,3.4789,0,0,0,0,0,3.4537,3.457,3.4601,3.4642,3.4656,3.4678,3.4698,3.4705,3.4735,3.4747,3.477,3.4801,3.4838,3.4862,3.4897,3.4954,3.4965,3.498,3.4985,3.4989,3.4995,3.5032,3.5041,3.495,3.495,3.4949,0,0,3.4551,3.4576,3.4595,3.4644,3.4666,3.4703,3.4688,3.4725,3.4754,3.4753,3.4803,3.4822,3.4857,3.4912,3.4938,3.4928,3.5023,3.4994,3.4997,3.5001,3.5037,3.5046,3.5053,3.4952,3.4952,3.4951,0,0,3.4597,3.4617,3.4656,3.468,3.4715,3.473,3.474,3.4775,3.4787,3.4838,3.484,3.4874,3.4936,3.4963,3.4984,3.5047,3.5047,3.5058,3.5086,3.5122,3.5129,3.5136,3.5162,3.517,3.5063,3.5063,3.5063,0,3.4611,3.4665,3.4676,3.4716,3.4739,3.4742,3.4783,3.4806,3.4851,3.4868,3.4857,3.4939,3.4962,3.5026,3.5042,3.5058,3.5073,3.5054,3.5127,3.5133,3.514,3.5165,3.5174,3.5065,3.5064,3.5064,3.5064,0,3.4683,3.472,3.4748,3.4793,3.4819,3.4859,3.488,3.4905,3.4911,3.4929,3.4983,3.5012,3.5055,3.5071,3.5076,3.5138,3.5132,3.5123,3.5104,3.515,3.5174,3.5183,3.5067,3.5066,3.5066,3.5065,0,0,3.4731,3.4785,3.4796,3.4818,3.4859,3.489,3.4932,3.4975,3.4999,3.5031,3.507,3.5125,3.5119,3.5144,3.5153,3.5184,3.5237,3.5173,3.5174,3.5187,3.5312,3.532,3.5331,3.5237,3.5239,3.524,3.5311,0,3.4784,3.4859,3.4873,3.4939,3.4977,3.4982,3.502,3.5051,3.5069,3.5106,3.5126,3.5167,3.5154,3.517,3.52,3.5224,3.5263,3.5219,3.5277,3.5279,3.527,3.5343,3.535,3.5414,3.532,3.5321,3.5322,0,3.4855,3.4891,3.4961,3.5002,3.5018,3.5052,3.5095,3.5129,3.5166,3.5178,3.5208,3.5215,3.5263,3.524,3.5309,3.5279,3.5304,3.532,3.5323,3.533,3.5304,3.5355,3.5435,3.5446,3.5337,3.5335,3.5334,0,3.4889,3.4954,3.5006,3.5024,3.5072,3.5097,3.5118,3.5154,3.5181,3.5219,3.5238,3.5281,3.5306,3.5341,3.5361,3.5342,3.543,3.5408,3.5444,3.5444,3.5463,3.5462,3.5551,3.5475,3.5475,3.5475,3.5475,0,3.4947,3.4991,3.5022,3.5054,3.5105,3.5122,3.5173,3.5194,3.5227,3.5266,3.5272,3.5309,3.5332,3.5373,3.5389,3.5447,3.5457,3.547,3.5474,3.5471,3.547,3.5489,3.5486,3.5477,3.5477,3.5476,3.5476,0,3.4993,3.5015,3.5073,3.5115,3.5127,3.5163,3.52,3.5233,3.5253,3.5302,3.5315,3.5346,3.5395,3.5419,3.5479,3.5491,3.5557,3.5557,3.5545,3.5547,3.5583,3.5581,3.5689,3.5706,3.5616,3.5617,3.5618,0,3.503,3.5064,3.5111,3.5137,3.516,3.5202,3.523,3.525,3.528,3.5328,3.5357,3.5406,3.5447,3.5526,3.5556,3.5603,3.5606,3.5641,3.5614,3.5611,3.5612,3.561,3.5616,3.5647,3.5648,3.5648,3.5649,0,3.5094,3.5105,3.5145,3.5191,3.5224,3.5261,3.5297,3.5319,3.5346,3.5379,3.543,3.5462,3.5526,3.5577,3.5628,3.5652,3.5657,3.5658,3.5669,3.5667,3.566,3.5669,3.5562,3.5655,3.5654,3.5654,3.5654,3.5653,3.5139,3.5172,3.5211,3.5257,3.5287,3.5322,3.5357,3.5383,3.5425,3.5478,3.5488,3.5544,3.5585,3.5654,3.5681,3.5727,3.5719,3.5735,3.5739,3.5744,3.5748,3.5651,3.5736,3.5736,3.5735,3.5735,3.5735,0,3.5207,3.5234,3.5276,3.5328,3.5365,3.5366,3.5408,3.544,3.5488,3.5526,3.5567,3.5629,3.5679,3.5715,3.5767,3.5797,3.5801,3.5811,3.581,3.5817,3.5749,3.5736,3.5807,3.5807,3.5807,3.5807,3.5807,3.5807,3.5247,3.5304,3.532,3.5394,3.5421,3.5475,3.5499,3.5534,3.5565,3.5633,3.5675,3.5698,3.5737,3.5793,3.5841,3.585,3.5871,3.5881,3.5891,3.5828,3.5821,3.5813,3.5801,3.5885,3.5885,3.5955,3.5956,3.5956]},{"header":{"parameterUnit":"m.s-1","parameterCategory":1,"la1":30.2991,"la2":30.254,"lo1":-89.0895,"lo2":-89.0444,"dy":0.0017,"dx":0.0017,"nx":28,"ny":28,"refTime":"2023-10-12T21:00:00:Z","depth":0,"parameterNumber":3,"parameterNumberName":"V-component_of_WINDS"},"data":[0,0,0,0,0,0,0,0,0,0,0,0,0,0,0,0,0,0,0,0,0,0,0,0,0,0,0,0,0,0,0,0,0,0,0,0,0,0,0,0,0,0,0,0,0,0,0,0,0,0,0,0,0,0,0,0,0,0,0.9659,0.966,0,0.9803,0.9805,0.9807,0.98,0.9798,0.9796,0.9794,0.9941,0.9947,0.9953,0,0,0,0,0,0,0,0,0,0,0,0,0,0.9374,0.9379,0.9659,0.9661,0.9662,0.9803,0.9805,0.9807,0.98,0.9798,0.9795,0.9793,0.994,0.9946,0.9953,0,0,0,0,0,0,0,0,0,0,0,0,0,0.9506,0.9381,0.9658,0.9676,0.9679,0.9803,0.9805,0.9808,0.9801,0.9798,0.9795,0.9792,0.9937,0.9946,0.9954,1.007,0,0,0.9981,0.9985,0,0,0,0,0,0,0,0,0.9499,0.9516,0.9672,0.9675,0.9678,0.978,0.9759,0.9896,0.9801,0.9754,0.9794,0.979,0.989,0.9903,0.9937,1.0077,1.0084,0.9982,0.9987,0.9991,0.9994,0,0,0,0,0,0,0,0.9489,0.951,0.9716,0.9674,0.9678,0.9676,0.9691,0.9785,0.9838,0.9758,0.9758,0.9775,0.9892,0.9928,0.994,1.0086,0.9982,0.999,0.9995,0.9998,1.0324,1.0328,0,0,0,0,0,0,0.9477,0.9503,0.9711,0.972,0.9579,0.9683,0.97,0.9751,0.9837,0.9847,0.9778,0.9774,0.9915,0.993,0.9945,1.0084,0.9991,0.9999,1.0004,1.0321,1.0325,1.0329,0,0,0,0,0,0,0.9471,0.9495,0.9706,0.9611,0.9638,0.9691,0.9748,0.9755,0.9792,0.9852,0.9861,0.9806,0.9913,0.9933,1.0038,1.0089,1.0003,1.0011,1.0317,1.0322,1.0327,1.0364,0,0,0,0,0,0,0.9462,0.9493,0.9539,0.9613,0.9643,0.9797,0.9751,0.976,0.9807,0.9804,0.988,0.989,0.9912,1.0025,1.0047,1.01,1.0018,1.0313,1.0319,1.0325,1.0358,1.037,1.0379,0,0,0,0,0,0.9452,0.9544,0.9541,0.9566,0.9701,0.98,0.9818,0.9842,0.9811,0.9857,0.9894,0.9887,1.008,1.0036,1.0061,1.0117,1.031,1.0317,1.0325,1.0354,1.0367,1.0379,0,0,0,0,0,0,0.9476,0.9554,0.9552,0.967,0.9729,0.9799,0.9857,0.9856,0.9924,0.9918,0.9945,0.9962,1.0067,1.0102,1.0052,1.0231,1.0191,1.0204,1.0204,1.0218,1.0228,1.0217,1.0025,0,0,0,0,0,0.9495,0.9569,0.9633,0.9732,0.9761,0.9804,0.9848,0.9861,0.9923,0.9947,0.9993,1.0052,1.0126,1.0174,1.0245,1.0363,1.0378,1.0413,1.0424,1.0432,1.0443,1.0504,1.052,1.0354,1.0354,1.0354,0,0,0.9535,0.9587,0.9632,0.9738,0.9784,0.9859,0.9825,0.9907,0.9962,0.996,1.0061,1.0097,1.0164,1.0276,1.0327,1.0309,1.0492,1.0442,1.0448,1.0454,1.0514,1.0529,1.0543,1.0359,1.0358,1.0357,0,0,0.9645,0.9693,0.9779,0.9826,0.9896,0.9924,0.9944,1.0014,1.0037,1.014,1.0138,1.0204,1.0331,1.0378,1.0419,1.0544,1.0539,1.0566,1.0621,1.0681,1.0694,1.0705,1.0747,1.0763,1.0577,1.0577,1.0577,0,0.9686,0.98,0.9823,0.9905,0.995,0.995,1.0035,1.008,1.017,1.0201,1.0179,1.0335,1.0381,1.0502,1.0532,1.0566,1.0588,1.0558,1.069,1.0702,1.0713,1.0754,1.077,1.058,1.0579,1.0579,1.0579,0,0.9845,0.9924,0.9985,1.007,1.0122,1.0206,1.024,1.029,1.0297,1.0327,1.0429,1.0484,1.0564,1.0594,1.0603,1.0715,1.0701,1.0684,1.0644,1.0731,1.0769,1.0785,1.0584,1.0583,1.0582,1.0581,0,0,0.9977,1.0072,1.0094,1.0131,1.0207,1.0268,1.035,1.0429,1.0469,1.0531,1.0599,1.0705,1.0688,1.0735,1.0749,1.0801,1.0893,1.0778,1.0779,1.0795,1.1017,1.1028,1.1046,1.089,1.0893,1.0896,1.101,0,1.0094,1.0239,1.0261,1.0389,1.046,1.046,1.053,1.0584,1.0613,1.0677,1.0708,1.0782,1.0756,1.0783,1.0836,1.0871,1.0938,1.0863,1.0952,1.0955,1.0934,1.1066,1.1079,1.1185,1.1026,1.1028,1.103,0,1.025,1.0314,1.0449,1.0513,1.0543,1.0607,1.0679,1.074,1.08,1.0817,1.0867,1.0873,1.0956,1.0912,1.1025,1.0974,1.1011,1.1034,1.1038,1.1047,1.0997,1.1076,1.1219,1.1234,1.1054,1.1052,1.1051,0,1.0329,1.045,1.0545,1.0578,1.0655,1.0699,1.0733,1.0789,1.0834,1.0896,1.0925,1.0997,1.1035,1.109,1.1114,1.1081,1.1225,1.1184,1.124,1.1239,1.127,1.1268,1.1419,1.1296,1.1296,1.1296,1.1296,0,1.0457,1.0539,1.0581,1.064,1.073,1.0754,1.0842,1.0875,1.0925,1.0988,1.0992,1.1052,1.1081,1.1145,1.1165,1.1253,1.1272,1.1286,1.129,1.1285,1.1283,1.1309,1.1302,1.13,1.1299,1.1298,1.1298,0,1.0561,1.0593,1.0696,1.076,1.0778,1.0841,1.0895,1.0951,1.0978,1.1058,1.1078,1.1121,1.1195,1.1225,1.1317,1.133,1.1432,1.1431,1.1411,1.1412,1.1465,1.1459,1.1638,1.1662,1.1525,1.1526,1.1527,0,1.064,1.0703,1.0772,1.0815,1.085,1.0919,1.0964,1.0988,1.1035,1.1105,1.1152,1.1226,1.1286,1.1405,1.1443,1.1512,1.1512,1.157,1.1523,1.1514,1.151,1.1506,1.1511,1.1578,1.158,1.1581,1.1582,0,1.0776,1.0788,1.0852,1.0922,1.0975,1.1031,1.1086,1.112,1.1152,1.1204,1.1279,1.1326,1.1418,1.1491,1.1561,1.1595,1.1593,1.1596,1.1612,1.1607,1.1593,1.1599,1.1433,1.1592,1.1591,1.159,1.159,1.1589,1.0869,1.0923,1.0979,1.105,1.1094,1.1144,1.1198,1.1231,1.1295,1.1371,1.1382,1.1462,1.1517,1.1611,1.1647,1.1709,1.1694,1.1718,1.1724,1.1729,1.1732,1.1583,1.1723,1.1722,1.1722,1.1722,1.1722,0,1.1003,1.1038,1.1103,1.1178,1.1234,1.1227,1.1286,1.1332,1.1403,1.1454,1.1513,1.1598,1.1668,1.171,1.178,1.1821,1.1822,1.1838,1.1835,1.1842,1.1742,1.1721,1.1836,1.1836,1.1836,1.1836,1.1836,1.1836,1.1079,1.1169,1.1187,1.1298,1.1333,1.1412,1.1446,1.1491,1.1532,1.1627,1.1684,1.1712,1.1759,1.1831,1.1894,1.1904,1.1929,1.1946,1.1955,1.1861,1.185,1.1838,1.1818,1.1952,1.1952,1.205,1.2051,1.2051]}]]